EW3889 Weather Reports


time (UTC)temp
C
wind
direction
speed
KPH
gust
KPH
rain 1hr
cm
rain 24hr
cm
rain mn
cm
humidity
%
barometer
mb
20260504080802 23 359 0.0 1.6 0.00 0.00 0.00 69 1016.8
20260504043802 23 343 0.0 0.0 0.00 0.00 3.84 69 1019.1
20260504040802 23 343 0.0 0.0 0.00 0.00 3.84 69 1019.4
20260504033802 23 345 0.0 0.0 0.00 0.00 3.84 69 1019.5
20260504030801 24 343 0.0 0.0 0.00 0.00 3.84 69 1019.1
20260504023801 23 339 0.0 4.8 0.00 0.00 3.84 69 1019.0
20260504020802 24 350 0.0 0.0 0.00 0.00 3.84 69 1018.9
20260504013803 24 345 0.0 19.3 0.00 0.00 3.84 69 1018.7
20260504010802 24 338 8.0 16.1 0.00 0.00 3.84 69 1018.8
20260504003802 24 354 0.0 17.7 0.00 0.00 3.84 69 1018.7
20260504000802 24 340 0.0 17.7 0.00 0.00 3.84 69 1018.4
20260503233802 24 4 0.0 17.7 0.00 0.00 3.84 69 1018.0
20260503230801 23 359 0.0 6.4 0.00 0.00 3.84 69 1017.4
20260503223802 23 359 0.0 0.0 0.00 0.00 3.84 69 1017.4
20260503220802 23 359 0.0 3.2 0.00 0.00 3.84 69 1017.8
20260503213802 23 359 0.0 8.0 0.00 0.00 2.57 69 1017.7
20260503210801 25 359 0.0 0.0 0.00 0.00 0.46 69 1017.6
20260503203802 26 354 0.0 0.0 0.00 0.00 0.05 69 1017.4
20260503200802 26 354 0.0 0.0 0.00 0.00 0.05 69 1017.4
20260503193802 26 354 0.0 0.0 0.00 0.00 0.05 69 1017.5
20260503190802 26 359 0.0 0.0 0.00 0.00 0.05 69 1018.0
20260503183802 26 354 0.0 0.0 0.00 0.00 0.05 69 1018.5
20260503180802 26 354 0.0 3.2 0.00 0.00 0.05 69 1019.0
20260503173801 27 359 0.0 0.0 0.00 0.00 0.05 69 1019.4
20260503170802 27 359 0.0 0.0 0.00 0.00 0.05 69 1020.0
20260503150802 26 354 0.0 1.6 0.00 0.00 0.05 69 1020.5
20260503130801 23 287 0.0 0.0 0.00 0.00 0.05 69 1020.5
20260503110802 22 291 0.0 0.0 0.00 0.00 0.05 69 1019.0